Content
SEND FEEDBACK

Daily
Averages
Monthly
Summary
United States of America

NAPERVILLE, ILLINOIS


Home > North America > United States > Illinois
Elevation: 687 feet     Latitude: 41 49N     Longitude: 088 04W

WEATHER
 
SELECT A DAY
Number of Records: 196,638;   Date Range: 1/1/95 - 8/12/14
 
SHARE

PRINT THIS DATA

[ ← Previous Day ]
WEATHER ALMANAC - JANUARY 7, 2013
[ Next Day → ]
[ °C ]   °F
Weather ElementAverageHighLow
Temperature29.4 °F41 °F (1:51 pm)16 °F (2:51 am)
Dewpoint21.2 °F26.1 °F (4:51 pm)14 °F (2:51 am)
Humidity73.5 %93 % (1:51 am)47 % (1:51 pm)
Barometer30.21 in30.34 in (2:51 am)30.12 in (3:51 pm)
Wind Speed13.1 mph21.9 mph (1:51 pm)
Wind Gust32.2 mph (2:51 pm)
Weather ElementAverage
Visibility9.6 mi
Wind DirectionSSW (202.6 °)

Weather ElementTotal
Precipitation---
Heating Degree Days36.5 (Base 65)
Averaged from 23 records on January 7, 2013
WEATHER CONDITIONS BREAKOUT
WIND DIRECTION BREAKOUT
WEATHER BY HOUR - JANUARY 7, 2013
[ °C ]   °F
Local TimeTemperatureDewpointHumidityBarometerVisibilityWind DirectionWind SpeedGust SpeedPrecipitationEventsConditions
1:51 AM19.4 °F17.6 °F93 %30.30 in8.0 miSSW (210°)6.9 mphClear
2:51 AM16.0 °F14.0 °F92 %30.34 in9.0 miSouth (190°)5.8 mphPartly Cloudy
3:51 AM16.0 °F14.0 °F92 %30.34 in9.0 miSouth (190°)5.8 mphScattered Clouds
4:51 AM19.0 °F16.0 °F88 %30.33 in9.0 miSSW (200°)5.8 mphScattered Clouds
5:51 AM21.0 °F17.1 °F85 %30.33 in9.0 miSSW (200°)9.2 mphScattered Clouds
6:51 AM21.0 °F17.1 °F85 %30.32 in10.0 miSSW (200°)8.1 mphScattered Clouds
7:51 AM23.0 °F18.0 °F81 %30.32 in10.0 miSouth (190°)9.2 mphScattered Clouds
8:51 AM26.1 °F19.0 °F75 %30.32 in10.0 miSSW (200°)16.1 mphPartly Cloudy
9:51 AM28.9 °F19.9 °F69 %30.30 in10.0 miSSW (200°)20.7 mph28.8 mphPartly Cloudy
10:51 AM33.1 °F19.9 °F59 %30.26 in10.0 miSSW (210°)19.6 mph27.6 mphPartly Cloudy
11:51 AM36.0 °F21.0 °F55 %30.20 in10.0 miSSW (200°)19.6 mphPartly Cloudy
12:51 PM39.0 °F21.9 °F50 %30.16 in10.0 miSSW (200°)20.7 mph29.9 mphScattered Clouds
1:51 PM41.0 °F21.9 °F47 %30.16 in10.0 miSW (220°)21.9 mph29.9 mphMostly Cloudy
2:51 PM39.9 °F24.1 °F53 %30.15 in10.0 miSSW (210°)21.9 mph32.2 mphMostly Cloudy
3:51 PM37.9 °F25.0 °F60 %30.12 in10.0 miSSW (210°)18.4 mph27.6 mphMostly Cloudy
4:51 PM36.0 °F26.1 °F67 %30.13 in10.0 miSouth (190°)16.1 mph21.9 mphMostly Cloudy
5:51 PM34.0 °F26.1 °F73 %30.12 in10.0 miSouth (190°)13.8 mphMostly Cloudy
6:51 PM33.1 °F25.0 °F72 %30.13 in10.0 miSSW (210°)12.7 mphMostly Cloudy
7:51 PM32.0 °F25.0 °F75 %30.12 in10.0 miSSW (200°)11.5 mphMostly Cloudy
8:51 PM30.9 °F25.0 °F79 %30.13 in10.0 miSSW (210°)8.1 mphMostly Cloudy
9:51 PM30.9 °F25.0 °F79 %30.12 in10.0 miSSW (210°)11.5 mphScattered Clouds
10:51 PM30.9 °F25.0 °F79 %30.12 in9.0 miSSW (210°)9.2 mphScattered Clouds
11:51 PM30.0 °F25.0 °F82 %30.12 in8.0 miSSW (210°)8.1 mphScattered Clouds
Hourly data recorded from KORD, located miles away from Naperville, Illinois







STORIES FROM OUR PARTNERS